Regional Weather Roundup
Issued by NWS

Home | Current Version | Previous Version | Text Only | Print | Product List | Glossary On
Versions: 1 2 3 4 5 6 7 8 9 10 11 12 13 14 15 16 17 18 19 20 21 22 23 24 25 26 27 28 29 30 31 32 33 34 35 36 37 38 39 40 41 42 43 44 45 46 47 48 49 50
000
ASUS43 KLOT 260810
RWRIL

ILLINOIS REGIONAL WEATHER ROUNDUP
NATIONAL WEATHER SERVICE CHICAGO/ROMEOVILLE IL
300 AM CDT SUN OCT 26 2014

NOTE: "FAIR" INDICATES FEW OR NO CLOUDS BELOW 12,000 FEET WITH NO
SIGNIFICANT WEATHER AND/OR OBSTRUCTIONS TO VISIBILITY.

* THESE STATIONS ARE NOT UNDER NWS QUALITY CONTROL. THEY ALSO MAY NOT
  REPORT WEATHER SUCH AS PRECIPITATION OR FOG.

ILZ001-002-007-009-015-016-024-260900-
NORTHWEST ILLINOIS

CITY           SKY/WX    TMP DP  RH WIND       PRES   REMARKS
MOLINE         CLEAR     39  34  82 CALM      30.04S
STERLING*      CLEAR     43  30  61 NW5       30.04S
SAVANNA*       CLEAR     37  33  85 CALM      30.04S
$$

ILZ003-004-008-010-011-017-018-260900-
NORTH CENTRAL ILLINOIS

CITY           SKY/WX    TMP DP  RH WIND       PRES   REMARKS
ROCKFORD       CLEAR     42  31  64 CALM      30.04S
FREEPORT*      CLEAR     40  31  69 W5        30.05S
ROCHELLE*      CLEAR     36  31  82 CALM      30.04R
DE KALB*       CLEAR     40  30  67 NW8       30.03R
PERU*          CLEAR     42  33  71 NW8       30.04R
$$

ILZ005-006-012>014-019>023-260900-
NORTHEAST ILLINOIS

CITY           SKY/WX    TMP DP  RH WIND       PRES   REMARKS
CHICAGO-OHARE  CLEAR     48  29  47 NW9       30.00R
CHICAGO-MIDWAY CLEAR     50  30  46 NW7       30.00R
AURORA         CLEAR     34  29  82 W7        30.02R WCI  28
LANSING*       CLEAR     43  31  64 NW3       30.00R
JOLIET*        CLEAR     46  31  55 CALM      30.01R
WAUKEGAN       CLEAR     47  28  47 NW6       29.99R
DUPAGE AIRPORT CLEAR     48  29  47 NW10      30.00R
KANKAKEE*      CLEAR     40  37  88 W5        30.02S
WHEELING       CLEAR     50  28  42 NW8       30.01R
MORRIS*        CLEAR     40  34  80 W5        30.01S
ROMEOVILLE*    CLEAR     41  32  71 NW5       30.01S
NORTHERLY ISL    N/A     56  26  31 NW12        N/A
$$

LMZ740>746-260900-
SOUTHERN LAKE MICHIGAN

STATION/POSITION SKY/WX   TEMP    WIND        PRES    VSBY  WAVE
                          AIR SEA DIR/SP/G                  HT/PER
                          (F)     (DEG/KT/KT) (MB)    (MI)  (FT/S)
SOUTHERN BUOY              54 54  300/ 16/ 19 1014.5R         3/ 5
WAUKEGAN HARBOR            51     300/  9/ 12   N/A
HARRISON CRIB              57     300/ 17/ 22   N/A
BURNHAM HARBOR             56     310/ 10/ 16   N/A
CALUMET HARBOR             52     280/  4/  6 1014.5R
MICHIGAN CITY              56     290/ 18/ 21   N/A
$$

ILZ025>027-034>036-040-047-049-050-058-095>099-260900-
WEST-CENTRAL ILLINOIS

CITY           SKY/WX    TMP DP  RH WIND       PRES   REMARKS
QUINCY         CLEAR     48  38  68 NE9       30.03S
GALESBURG*     CLEAR     40  37  87 CALM      30.04S
MACOMB*        CLEAR     45  37  76 N5        30.06S
JACKSONVILLE*  CLEAR     51  40  66 NE3       30.03S
PITTSFIELD*    CLEAR     55  39  56 CALM      30.04S
$$

ILZ028>032-037-038-041>044-048-051>054-059>061-260900-
CENTRAL ILLINOIS

CITY           SKY/WX    TMP DP  RH WIND       PRES   REMARKS
PONTIAC        CLEAR     41  36  81 CALM      30.03S
BLOOMINGTON    CLEAR     51  35  54 NW7       30.04S
DECATUR        CLEAR     51  37  58 N9        30.03S
PEORIA         CLEAR     46  36  68 SW3       30.04S
LACON*         CLEAR     40  34  78 CALM      30.03S
LINCOLN*       CLEAR     49  39  69 CALM      30.02S
SPRINGFIELD    CLEAR     52  38  58 N8        30.04S
TAYLORVILLE    CLEAR     46  39  76 N5        30.03S
$$

ILZ033-039-045-046-055>057-062-063-260900-
EAST-CENTRAL ILLINOIS

CITY           SKY/WX    TMP DP  RH WIND       PRES   REMARKS
CHAMPAIGN      CLEAR     44  37  76 NW7       30.03R
DANVILLE*      CLEAR     47  35  61 NW7       29.99S
RANTOUL*       CLEAR     47  37  68 NW6       30.02S
MATTOON        CLEAR     51  38  60 N7        30.02S
PARIS*         CLEAR     46  39  76 NW5       30.03S
$$

ILZ079-100>102-260900-
SOUTHWEST ILLINOIS

CITY           SKY/WX    TMP DP  RH WIND       PRES   REMARKS
ALTON          CLEAR     53  42  67 CALM      30.03R
BELLEVILLE     CLEAR     55  49  80 CALM      30.01S
CAHOKIA*       CLEAR     50  48  93 CALM      30.02S FOG
SPARTA*        CLEAR     53  51  94 CALM      30.03S
$$

ILZ064>066-069>071-074>076-080>082-084>086-088>090-092>094-260900-
SOUTH-CENTRAL ILLINOIS

CITY           SKY/WX    TMP DP  RH WIND       PRES   REMARKS
CARBONDALE     CLEAR     49  48  97 CALM      30.02R FOG
CAIRO*         FOG       55  53  92 CALM      30.00S VSB 1/2
EFFINGHAM*     CLEAR     55  34  44 N3        30.02S
MARION         FOG       54  52  94 CALM      30.02S VSB 1
MT. VERNON       N/A     46  43  87 CALM      30.02F VSB 1/2
CENTRALIA*     CLEAR     50  48  93 CALM      30.02S
SALEM*         CLEAR     58  46  65 NE6       30.02F
METROPOLIS*    CLEAR     53  53 100 CALM      30.00S FOG
$$

ILZ067-068-072-073-078-083-087-091-260900-
SOUTHEAST ILLINOIS

CITY           SKY/WX    TMP DP  RH WIND       PRES   REMARKS
LAWRENCEVILLE  CLEAR     53  46  77 NW5       30.02R HAZE
FLORA*         CLEAR     56  45  68 N5        30.02S
FAIRFIELD*     CLEAR     56  47  71 N5        30.01S
HARRISBURG*    FOG       50  50 100 CALM      30.03R VSB 3/4
ROBINSON*      CLEAR     50  44  79 CALM      30.03R
CARMI*         CLEAR     51  50  97 CALM      30.01S
$$

ABBREVIATIONS USED IN REMARKS
   TC - TEMPERATURE IN CELSIUS
  WCI - WIND CHILL INDEX
   HX - HEAT INDEX
  VSB - VISIBILITY
$$




USA.gov is the U.S. government's official web portal to all federal, state and local government web resources and services.